| time (UTC) | temp C | wind direction | speed KPH | gust KPH | rain 1hr cm | rain 24hr cm | rain mn cm | humidity % | barometer mb |
| 20260906214512 | 28 | 105 | 4.8 | 22.5 | 0.00 | 0.00 | 0.00 | 33 | 1001.7 |
| 20260906213008 | 28 | 207 | 1.6 | 9.7 | 0.00 | 0.00 | 0.00 | 31 | 1001.9 |
| 20260906211506 | 28 | 71 | 0.0 | 3.2 | 0.00 | 0.00 | 0.00 | 31 | 1001.9 |
| 20260906210004 | 28 | 43 | 1.6 | 16.1 | 0.00 | 0.00 | 0.00 | 29 | 1002.1 |
| 20260906204504 | 28 | 59 | 0.0 | 14.5 | 0.00 | 0.00 | 0.00 | 32 | 1002.1 |
| 20260906203057 | 28 | 355 | 0.0 | 3.2 | 0.00 | 0.00 | 0.00 | 32 | 1002.3 |
| 20260906201555 | 28 | 36 | 0.0 | 11.3 | 0.00 | 0.00 | 0.00 | 32 | 1002.3 |
| 20260906200054 | 27 | 45 | 0.0 | 0.0 | 0.00 | 0.00 | 0.00 | 32 | 1002.4 |
| 20260906194551 | 27 | 30 | 0.0 | 8.0 | 0.00 | 0.00 | 0.00 | 34 | 1002.5 |
| 20260906193049 | 28 | 28 | 0.0 | 14.5 | 0.00 | 0.00 | 0.00 | 36 | 1002.6 |
| 20260906191556 | 27 | 38 | 0.0 | 12.9 | 0.00 | 0.00 | 0.00 | 40 | 1002.8 |
| 20260906190045 | 27 | 10 | 0.0 | 12.9 | 0.00 | 0.00 | 0.00 | 42 | 1002.9 |
| 20260906184555 | 27 | 355 | 0.0 | 9.7 | 0.00 | 0.00 | 0.00 | 39 | 1002.9 |
| 20260906183047 | 27 | 13 | 0.0 | 6.4 | 0.00 | 0.00 | 0.00 | 39 | 1003.3 |
| 20260906181542 | 27 | 30 | 0.0 | 6.4 | 0.00 | 0.00 | 0.00 | 41 | 1003.4 |
| 20260906180053 | 26 | 5 | 0.0 | 6.4 | 0.00 | 0.00 | 0.00 | 43 | 1003.8 |
| 20260906174539 | 26 | 355 | 0.0 | 1.6 | 0.00 | 0.00 | 0.00 | 43 | 1004.1 |
| 20260906173038 | 26 | 12 | 0.0 | 0.0 | 0.00 | 0.00 | 0.00 | 42 | 1004.2 |
| 20260906171534 | 25 | 40 | 0.0 | 6.4 | 0.00 | 0.00 | 0.00 | 42 | 1004.4 |
| 20260906170033 | 25 | 40 | 0.0 | 6.4 | 0.00 | 0.00 | 0.00 | 42 | 1004.5 |
| 20260906164532 | 25 | 27 | 0.0 | 1.6 | 0.00 | 0.00 | 0.00 | 41 | 1004.5 |
| 20260906163027 | 25 | 5 | 0.0 | 1.6 | 0.00 | 0.00 | 0.00 | 40 | 1004.5 |
| 20260906161524 | 24 | 21 | 0.0 | 3.2 | 0.00 | 0.00 | 0.00 | 39 | 1004.4 |
| 20260906160021 | 23 | 21 | 0.0 | 6.4 | 0.00 | 0.00 | 0.00 | 39 | 1004.5 |
| 20260906154520 | 23 | 16 | 0.0 | 0.0 | 0.00 | 0.00 | 0.00 | 40 | 1004.5 |
| 20260906153019 | 23 | 11 | 1.6 | 6.4 | 0.00 | 0.00 | 0.00 | 41 | 1004.5 |
| 20260906151516 | 22 | 11 | 0.0 | 0.0 | 0.00 | 0.00 | 0.00 | 42 | 1004.6 |
| 20260906150015 | 21 | 304 | 0.0 | 1.6 | 0.00 | 0.00 | 0.00 | 45 | 1004.6 |
| 20260906144513 | 19 | 303 | 0.0 | 3.2 | 0.00 | 0.00 | 0.00 | 52 | 1004.5 |
| 20260906143009 | 16 | 303 | 0.0 | 0.0 | 0.00 | 0.00 | 0.00 | 58 | 1004.6 |
| 20260906141508 | 15 | 303 | 0.0 | 0.0 | 0.00 | 0.00 | 0.00 | 60 | 1004.7 |
| 20260906140004 | 15 | 303 | 0.0 | 0.0 | 0.00 | 0.00 | 0.00 | 61 | 1004.6 |
| 20260906134502 | 14 | 302 | 0.0 | 1.6 | 0.00 | 0.00 | 0.00 | 64 | 1004.6 |
| 20260906133001 | 13 | 312 | 0.0 | 8.0 | 0.00 | 0.00 | 0.00 | 69 | 1004.3 |
| 20260906131615 | 12 | 198 | 0.0 | 1.6 | 0.00 | 0.00 | 0.00 | 75 | 1004.1 |
| 20260906130107 | 13 | 198 | 0.0 | 3.2 | 0.00 | 0.00 | 0.00 | 75 | 1004.0 |
| 20260906124558 | 13 | 198 | 0.0 | 0.0 | 0.00 | 0.00 | 0.00 | 75 | 1003.9 |
| 20260906123057 | 12 | 141 | 0.0 | 0.0 | 0.00 | 0.00 | 0.00 | 74 | 1003.9 |
| 20260906121555 | 13 | 141 | 0.0 | 0.0 | 0.00 | 0.00 | 0.00 | 74 | 1004.0 |
| 20260906120059 | 13 | 141 | 0.0 | 0.0 | 0.00 | 0.00 | 0.00 | 72 | 1003.8 |
| 20260906114552 | 13 | 141 | 0.0 | 0.0 | 0.00 | 0.00 | 0.00 | 72 | 1003.9 |
| 20260906113050 | 13 | 141 | 0.0 | 0.0 | 0.00 | 0.00 | 0.00 | 72 | 1003.8 |
| 20260906111547 | 13 | 141 | 0.0 | 0.0 | 0.00 | 0.00 | 0.00 | 70 | 1003.6 |
| 20260906110043 | 14 | 141 | 0.0 | 0.0 | 0.00 | 0.00 | 0.00 | 67 | 1003.7 |
| 20260906104541 | 15 | 141 | 0.0 | 0.0 | 0.00 | 0.00 | 0.00 | 65 | 1003.5 |
| 20260906103040 | 15 | 141 | 0.0 | 0.0 | 0.00 | 0.00 | 0.00 | 64 | 1003.5 |
| 20260906101538 | 15 | 141 | 0.0 | 0.0 | 0.00 | 0.00 | 0.00 | 62 | 1003.4 |
| 20260906100039 | 15 | 141 | 0.0 | 0.0 | 0.00 | 0.00 | 0.00 | 59 | 1003.3 |
| 20260906094534 | 15 | 141 | 0.0 | 0.0 | 0.00 | 0.00 | 0.00 | 58 | 1003.1 |
| 20260906093040 | 16 | 141 | 0.0 | 0.0 | 0.00 | 0.00 | 0.00 | 56 | 1003.2 |
| 20260906091529 | 16 | 141 | 0.0 | 0.0 | 0.00 | 0.00 | 0.00 | 55 | 1002.9 |
| 20260906090028 | 17 | 141 | 0.0 | 0.0 | 0.00 | 0.00 | 0.00 | 53 | 1002.7 |
| 20260906084527 | 17 | 141 | 0.0 | 0.0 | 0.00 | 0.00 | 0.00 | 53 | 1002.6 |
| 20260906083026 | 17 | 141 | 0.0 | 0.0 | 0.00 | 0.00 | 0.00 | 53 | 1002.9 |
| 20260906081527 | 17 | 259 | 0.0 | 0.0 | 0.00 | 0.00 | 0.00 | 52 | 1002.9 |
| 20260906080023 | 17 | 259 | 0.0 | 0.0 | 0.00 | 0.00 | 0.00 | 51 | 1002.9 |
| 20260906074522 | 17 | 259 | 0.0 | 0.0 | 0.00 | 0.00 | 0.00 | 51 | 1003.1 |
| 20260906073024 | 16 | 260 | 0.0 | 0.0 | 0.00 | 0.00 | 0.00 | 53 | 1003.1 |
| 20260906071517 | 16 | 248 | 0.0 | 0.0 | 0.00 | 0.00 | 0.00 | 52 | 1003.3 |
| 20260906070017 | 17 | 248 | 0.0 | 0.0 | 0.00 | 0.00 | 0.00 | 51 | 1003.6 |
| 20260906064518 | 16 | 248 | 0.0 | 0.0 | 0.00 | 0.00 | 0.00 | 53 | 1003.6 |
| 20260906063014 | 16 | 248 | 0.0 | 0.0 | 0.00 | 0.00 | 0.00 | 52 | 1003.4 |
| 20260906061509 | 17 | 248 | 0.0 | 0.0 | 0.00 | 0.00 | 0.00 | 49 | 1003.6 |
| 20260906060004 | 18 | 248 | 0.0 | 0.0 | 0.00 | 0.00 | 0.00 | 45 | 1003.7 |
| 20260906054503 | 18 | 249 | 0.0 | 1.6 | 0.00 | 0.00 | 0.00 | 42 | 1003.7 |
| 20260906053003 | 18 | 249 | 0.0 | 0.0 | 0.00 | 0.00 | 0.00 | 41 | 1003.4 |
| 20260906051601 | 18 | 249 | 0.0 | 0.0 | 0.00 | 0.00 | 0.00 | 41 | 1003.2 |
| 20260906050058 | 18 | 249 | 0.0 | 0.0 | 0.00 | 0.00 | 0.00 | 40 | 1002.9 |
| 20260906044557 | 18 | 249 | 0.0 | 0.0 | 0.00 | 0.00 | 0.00 | 40 | 1002.8 |
| 20260906043057 | 19 | 249 | 0.0 | 0.0 | 0.00 | 0.00 | 0.00 | 40 | 1002.7 |
| 20260906041556 | 18 | 249 | 0.0 | 0.0 | 0.00 | 0.00 | 0.00 | 41 | 1002.7 |
| 20260906040056 | 18 | 249 | 0.0 | 0.0 | 0.00 | 0.00 | 0.00 | 41 | 1002.7 |
| 20260906034555 | 18 | 249 | 0.0 | 0.0 | 0.00 | 0.00 | 0.00 | 41 | 1002.8 |
| 20260906033100 | 18 | 249 | 0.0 | 0.0 | 0.00 | 0.00 | 0.00 | 41 | 1002.7 |
| 20260906031558 | 18 | 249 | 0.0 | 0.0 | 0.00 | 0.00 | 0.00 | 41 | 1002.6 |
| 20260906030055 | 18 | 249 | 0.0 | 1.6 | 0.00 | 0.00 | 0.00 | 41 | 1002.4 |
| 20260906024552 | 18 | 249 | 0.0 | 0.0 | 0.00 | 0.00 | 0.00 | 42 | 1002.1 |
| 20260906023052 | 19 | 249 | 0.0 | 0.0 | 0.00 | 0.00 | 0.00 | 41 | 1002.0 |
| 20260906021557 | 20 | 249 | 0.0 | 0.0 | 0.00 | 0.00 | 0.00 | 38 | 1001.7 |
| 20260906020054 | 21 | 249 | 0.0 | 0.0 | 0.00 | 0.00 | 0.00 | 36 | 1001.5 |
| 20260906014556 | 21 | 257 | 0.0 | 6.4 | 0.00 | 0.00 | 0.00 | 37 | 1001.5 |
| 20260906013051 | 21 | 259 | 0.0 | 11.3 | 0.00 | 0.00 | 0.00 | 39 | 1001.4 |
| 20260906011602 | 21 | 302 | 0.0 | 3.2 | 0.00 | 0.00 | 0.00 | 39 | 1001.6 |
| 20260906010049 | 21 | 243 | 0.0 | 0.0 | 0.00 | 0.00 | 0.00 | 40 | 1001.8 |
| 20260906004549 | 22 | 297 | 0.0 | 9.7 | 0.00 | 0.00 | 0.00 | 39 | 1002.0 |
| 20260906003048 | 22 | 304 | 3.2 | 16.1 | 0.00 | 0.00 | 0.00 | 39 | 1002.1 |
| 20260906001548 | 22 | 302 | 1.6 | 14.5 | 0.00 | 0.00 | 0.00 | 40 | 1002.1 |
| 20260906000047 | 22 | 300 | 4.8 | 24.1 | 0.00 | 0.00 | 0.00 | 41 | 1002.3 |
| 20260905234546 | 23 | 234 | 1.6 | 19.3 | 0.00 | 0.00 | 0.00 | 36 | 1002.2 |
| 20260905233104 | 24 | 251 | 6.4 | 25.7 | 0.00 | 0.00 | 0.00 | 32 | 1002.0 |
| 20260905231552 | 24 | 256 | 0.0 | 0.0 | 0.00 | 0.00 | 0.00 | 31 | 1001.6 |
| 20260905230047 | 24 | 296 | 0.0 | 8.0 | 0.00 | 0.00 | 0.00 | 31 | 1001.2 |
| 20260905224604 | 24 | 292 | 0.0 | 25.7 | 0.00 | 0.00 | 0.00 | 32 | 1001.6 |
| 20260905223043 | 26 | 46 | 0.0 | 0.0 | 0.00 | 0.00 | 0.00 | 27 | 1001.1 |
| 20260905221542 | 27 | 46 | 0.0 | 0.0 | 0.00 | 0.00 | 0.00 | 24 | 1000.9 |
| 20260905220048 | 27 | 144 | 0.0 | 12.9 | 0.00 | 0.00 | 0.00 | 24 | 1000.7 |